User: anonymous   Login
Location: Kumla
(59.1265°N, 15.1401°E)
Time: 09:17:11
(UTC+02:00)
Language:

DELTA 1 DEB - Orbit

View from above orbital plane
View from above orbital plane
View from above satellite
View from above satellite

Ground track
Ground track

The orbit data is extracted from the following two-line orbital elements,

1 42588U 73086JC  24130.71957247 -.00000009  00000-0  29247-3 0  9990
2 42588 102.3938 113.5878 0066770 290.1161 247.5282 12.35946848472243
Epoch (UTC): 09 May 2024 17:16:11
Eccentricity: 0.0066770
inclination: 102.3938°
perigee height: 1471 km
apogee height: 1576 km
right ascension of ascending node: 113.5878°
argument of perigee: 290.1161°
revolutions per day: 12.35946848
mean anomaly at epoch: 247.5282°
orbit number at epoch: 47224

The dashed part of the orbit path shows where the satellite is in the earth's shadow,  

DLR